Location: Unspecified
(0.0000°N, 0.0000°E)
Time: 10:33:36
(UTC+00:00)

MIDAS 4 DEB - Pass Details

Date: 17 November 2025
Orbit: 3271 x 3959 km, 95.8° (Epoch: 26 July)

Event Time Altitude Azimuth Distance (km) Brightness Sun altitude
Exits shadow 18:08:39 - 76° (ENE) 7,142 ? -5.6°
Reaches altitude 10° 18:14:38 10° 94° (E) 6,799 ? -7.0°
Maximum altitude 18:18:57 11° 108° (ESE) 6,767 ? -8.0°
Drops below altitude 10° 18:23:19 10° 122° (ESE) 6,927 ? -9.0°
Sets 18:34:29 0° 152° (SSE) 8,085 ? -11.7°
